Probability
0 0 0 0 0 0 0 0 0 0 0 0 0 0 0 0 0 0 0 0 0 0 0 0 0 0 0 0 0 0 0 0 0 0 0 0 0 0 0 0 0 0 0 0
0 0 0 0 0 0 0 0 0 0 0 0 0 0 0 0 0 0 0 0 0 0 0 0 0 0 0 0 0 0 0 0 0 0 0 0 0 0 0 0 0 0 0 0
0 0 0 0 0 0 0 0 0 0 0 0 0 0 0 0 0 0 0 0 0 0 0 0 0 0 0 0 0 0 0 0 0 0 0 0 0 0 0 0 0 0 0 0
0 0 0 0 0 0 0 0 0 0 0 0 0 0 0 0 0 0 0 0 0 0 0 0 0 0 0 0 0 0 0 0 0 0 0 0 0 0 0 0 0 0 0 0
0 0 0 0 0 0 0 0 0 0 0 0 0 0 0 0 0 0 0 0 0 0 0 0 0 0 0 0 0 0 0 0 0 0 0 0 0 0 0 0 0 0 0 0
0 0 0 0 0 0 0 0 0 0 0 0 0 0 0 0 0 0 0 0 0 0 0 0 0 0 0 0 0 0 0 0 0 0 0 0 0 0 0 0 0 0 0 0
0 0 0 0 0 0 0 0 0 0 0 0 0 0 0 0 0 0 0 0 0 0 0 0 0 0 0 0 0 0 0 0 0 0 0 0 0 0 0 0 0 0 0 0
0 0 0 0 0 0 0 0 0 0 0 0 0 0 0 0 0 0 0 0 0 0 0 0 0 0 0 0 0 0 0 0 0 0 0 0 0 0 0 0 0 0 0 0
0 0 0 0 0 0 0 0 0 0 0 0 0 0 0 0 0 0 0 0 0 0 0 0 0 0 0 0 0 0 0 0 0 0 0 0 0 0 0 0 0 0 0 0
0 0 0 0 0 0 0 0 0 0 0 0 0 0 0 0 0 0 0 0 0 0 0 0 0 0 0 0 0 0 0 0 0 0 0 0 0 0 0 0 0 0 0 0
0 0 0 0 0 0 0 0 0 0 0 0 0 0 0 0 0 0 0 0 0 0 0 0 0 0 0 0 0 0 0 0 0 0 0 0 0 0 0 0 0 0 0 0
0 0 0 0 0 0 0 0 0 0 0 0 0 0 0 0 0 0 0 0 0 0 0 0 0 0 0 0 0 0 0 0 0 0 0 0 0 0 0 0 0 0 0 0
0 0 0 0 0 0 0 0 0 0 0 0 0 0 0 0 0 0 0 0 0 0 0 0 0 0 0 0 0 0 0 0 0 0 0 0 0 0 0 0 0 0 0 0
0 0 0 0 0 0 0 0 0 0 0 0 0 0 0 0 0 0 0 0 0 0 0 0 0 0 0 0 0 0 0 0 0 0 0 0 0 0 0 0 0 0 0 0
0 0 0 0 0 0 0 0 0 0 0 0 0 0 0 0 0 0 0 0 0 0 0 0 0 0 0 0 0 0 0 0 0 0 0 0 0 0 0 0 0 0 0 0
0 0 0 0 0 0 0 0 0 0 0 0 0 0 0 0 0 0 0 0 0 0 0 0 0 0 0 0 0 0 0 0 0 0 0 0 0 0 0 0 0 0 0 0
0 0 0 0 0 0 0 0 0 0 0 0 0 0 0 0 0 0 0 0 0 0 0 0 0 0 0 0 0 0 0 0 0 0 0 0 0 0 0 0 0 0 0 0
0 0 0 0 0 0 0 0 0 0 0 0 0 0 0 0 0 0 0 0 0 0 0 0 0 0 0 0 0 0 0 0 0 0 0 0 0 0 0 0 0 0 0 0
0 0 0 0 0 0 0 0 0 0 0 0 0 0 0 0 0 0 0 0 0 0 0 0 0 0 0 0 0 0 0 0 0 0 0 0 0 0 0 0 0 0 0 0
0 0 0 0 0 0 0 0 0 0 0 0 0 0 0 0 0 0 0 0 0 0 0 0 0 0 0 0 0 0 0 0 0 0 0 0 0 0 0 0 0 0 0 0
0 0 0 0 0 0 0 0 0 0 0 0 0 0 0 0 0 0 0 0 0 0 0 0 0 0 0 0 0 0 0 0 0 0 0 0 0 0 0 0 0 0 0 0
0 0 0 0 0 0 0 0 0 0 0 0 0 0 0 0 0 0 0 0 0 0 0 0 0 0 0 0 0 0 0 0 0 0 0 0 0 0 0 0 0 0 0 0
0 0 0 0 0 0 0 0 0 0 0 0 0 0 0 0 0 0 0 0 0 0 0 0 0 0 0 0 0 0 0 0 0 0 0 0 0 0 0 0 0 0 0 0
0 0 0 0 0 0 0 0 0 0 0 0 0 0 0 0 0 0 0 0 0 0 0 0 0 0 0 0 0 0 0 0 0 0 0 0 0 0 0 0 0 0 0 0
0 0 0 0 0 0 0 0 0 0 0 0 0 0 0 0 0 0 0 0 0 0 0 0 0 0 0 0 0 0 0 0 0 0 0 0 0 0 0 0 0 0 0 0
0 0 0 0 0 0 0 0 0 0 0 0 0 0 0 0 0 0 0 0 0 0 0 0 0 0 0 0 0 0 0 0 0 0 0 0 0 0 0 0 0 0 0 0
Wind_Speed
1 4 6 7 8 4 3 5 8 6 3 6 12 17 16 12 12 13 12 11 11 11 9 8 8 8 7 8 8 8 8 7 6 5 4 4 3 3 2 2 2 3 3 3
4 6 4 2 4 4 5 7 8 5 2 5 10 16 16 12 13 12 12 12 11 10 9 8 8 8 9 9 9 9 9 8 8 5 4 3 3 2 2 2 2 3 3 3
6 1 2 4 5 6 7 9 7 6 5 4 9 12 9 7 9 10 11 11 11 10 10 9 9 9 9 10 10 9 9 9 8 7 5 4 3 2 3 3 3 3 3 3
4 1 2 4 5 6 7 4 5 4 5 4 4 9 6 5 7 8 9 10 10 9 9 9 10 10 10 10 9 9 9 9 8 8 7 8 6 5 5 4 4 4 4 4
4 3 3 5 4 5 2 0 2 4 5 6 5 8 8 3 7 7 6 7 8 7 8 9 10 10 9 9 8 9 9 9 9 9 9 8 6 5 4 4 5 5 4 4
1 1 1 2 0 2 3 1 1 2 3 7 6 8 8 4 5 4 3 3 3 4 4 5 6 6 7 7 8 8 9 9 9 9 9 8 8 7 7 6 6 5 4 3
2 2 1 1 2 2 3 3 2 3 4 6 2 7 10 5 4 5 4 3 2 2 2 3 4 6 6 7 8 8 9 9 9 10 9 9 9 8 8 8 7 6 4 4
5 5 5 3 3 4 5 5 4 4 4 3 3 9 7 4 4 4 4 3 2 1 2 2 3 4 5 6 7 8 9 9 9 9 9 8 8 6 5 7 6 6 4 4
6 4 1 1 1 3 5 5 1 1 1 5 6 6 7 4 3 2 2 2 2 1 1 2 2 3 4 5 7 8 8 8 8 9 9 8 8 7 6 6 6 4 4 4
4 3 1 0 1 1 2 3 3 4 4 6 6 6 4 2 3 3 3 3 3 2 1 1 2 2 3 4 5 6 7 8 7 8 7 6 7 7 7 6 6 6 6 5
3 3 1 2 6 7 5 4 4 3 3 4 5 4 2 2 2 3 3 3 3 2 2 1 1 2 2 2 3 5 6 6 6 7 7 7 7 7 7 6 6 6 6 6
3 3 3 4 0 3 4 5 6 5 5 4 5 7 1 1 2 3 4 4 3 2 1 1 1 1 2 2 3 4 5 5 6 6 6 7 7 7 7 7 7 6 6 6
5 4 2 2 3 3 5 6 6 3 2 5 7 7 1 2 3 3 4 4 3 2 1 1 1 2 2 2 3 3 4 5 5 5 6 6 7 7 7 7 7 6 6 6
2 4 6 8 3 5 6 8 9 8 7 8 12 12 7 6 5 5 5 4 4 3 2 2 2 3 3 3 3 3 4 4 5 5 6 6 7 7 7 7 6 6 6 6
2 4 4 5 3 3 6 8 12 14 13 11 11 12 12 9 7 6 5 4 4 4 4 4 4 3 3 3 3 3 4 4 5 5 6 6 6 6 6 6 6 6 6 6
2 3 1 3 2 3 7 10 13 15 14 15 14 16 10 9 7 6 5 4 5 6 6 5 4 4 4 4 4 4 4 4 5 6 6 5 5 5 6 6 6 6 6 5
5 5 3 4 1 2 10 12 14 11 12 12 16 16 7 7 7 7 6 6 7 7 6 5 5 5 5 5 5 5 4 4 5 5 5 5 6 6 6 5 5 6 6 5
6 5 3 1 1 9 6 1 9 12 11 11 11 10 8 9 8 7 5 6 8 7 7 6 5 5 5 4 4 4 3 4 5 5 5 5 5 6 5 5 5 5 5 5
6 6 4 4 5 10 7 4 5 8 9 9 13 12 8 5 6 6 5 6 8 7 6 5 5 5 4 4 4 4 4 4 5 5 5 6 6 6 6 6 6 5 5 5
3 4 4 5 6 9 5 1 1 3 6 3 6 9 6 3 5 5 4 6 7 6 5 4 3 2 3 3 3 4 4 4 5 6 5 5 6 6 7 6 6 5 5 5
6 5 7 8 8 9 4 1 4 5 4 0 3 4 4 5 6 5 6 5 5 5 4 3 2 2 2 2 3 4 4 5 5 3 3 4 5 5 5 5 4 4 4 4
10 9 9 7 9 10 3 5 7 3 2 1 2 3 4 6 6 6 6 6 6 5 4 3 2 2 1 2 3 4 4 3 2 3 3 4 4 4 4 4 4 4 4 4
9 9 7 10 9 1 5 5 3 1 2 2 3 3 4 5 5 6 6 6 6 5 4 3 2 2 1 1 2 4 3 1 2 3 3 3 3 3 4 5 5 4 4 4
6 3 4 6 8 5 5 4 3 3 4 4 4 4 3 4 5 5 5 5 5 5 4 3 2 1 2 1 1 2 1 2 3 3 3 3 4 4 4 4 4 4 4 4
6 7 6 8 7 5 5 6 6 5 4 4 4 4 4 5 5 5 5 5 4 4 4 3 2 2 3 2 2 1 1 2 3 3 3 3 3 3 4 4 4 5 4 4
7 9 10 9 7 6 6 4 4 4 5 5 5 5 4 4 5 5 4 4 3 3 3 3 3 3 3 2 2 2 1 2 3 3 3 3 3 3 3 3 3 4 4 4
Wind_Direction
148 195 213 216 222 257 247 247 259 266 286 267 263 270 271 261 251 252 249 245 244 241 235 219 210 200 192 186 185 181 176 176 172 168 171 167 168 160 160 156 150 151 147 147
167 222 237 223 207 220 233 250 262 270 277 272 284 277 271 256 245 246 248 245 242 239 227 214 207 198 194 191 190 188 185 181 181 181 174 166 155 165 168 160 156 156 158 157
203 166 178 185 200 219 237 246 258 274 299 260 291 277 256 245 242 246 245 245 242 235 228 217 209 204 198 196 194 193 190 187 184 180 166 146 144 151 168 174 173 174 171 167
221 197 183 197 214 222 246 241 246 259 277 283 309 292 277 268 267 253 247 240 238 233 225 216 208 206 203 201 195 194 190 188 182 180 183 179 182 184 186 179 174 168 172 170
203 183 187 207 228 213 224 127 235 253 255 273 242 261 275 273 270 263 247 239 240 235 226 218 209 207 205 198 194 193 191 187 183 187 190 189 190 187 170 168 170 169 169 169
217 210 252 239 339 192 151 145 179 207 228 255 232 235 271 249 260 283 274 260 249 238 230 224 213 205 201 196 193 192 192 190 187 191 192 193 190 185 174 174 174 175 171 171
190 204 207 195 136 153 195 195 223 222 221 244 177 234 256 269 277 285 295 299 290 247 223 212 204 202 199 194 192 191 192 193 191 194 196 197 196 193 189 184 184 178 177 179
196 212 194 201 208 191 202 221 225 243 252 268 199 239 256 284 298 293 294 309 316 268 226 216 210 207 202 197 193 191 193 194 192 195 198 198 197 196 196 193 188 188 185 183
203 204 102 207 270 187 179 214 276 237 300 274 248 255 280 272 296 303 314 329 324 304 253 234 215 211 205 199 199 196 193 193 194 196 194 195 197 199 196 191 191 191 187 181
192 193 181 224 177 268 274 159 166 200 230 254 262 251 250 289 315 343 350 330 325 324 288 239 223 222 212 204 200 197 195 196 196 195 194 193 196 198 196 191 192 191 189 184
188 165 166 189 209 201 173 182 205 203 239 244 269 258 195 258 334 332 324 324 317 302 277 254 241 228 216 204 195 194 194 195 196 197 194 192 194 193 193 195 197 193 191 188
179 165 205 221 241 308 229 212 191 206 219 231 258 270 110 265 328 319 317 319 315 299 281 258 241 226 213 208 204 200 195 197 199 196 193 194 191 190 193 197 199 195 194 192
158 163 175 213 203 206 231 218 212 219 198 211 231 258 83 309 316 307 310 319 323 319 311 277 250 239 238 225 215 212 202 201 196 191 190 190 192 194 196 197 197 197 195 193
167 193 219 235 246 184 216 221 212 205 218 228 238 260 280 292 301 311 312 308 313 308 292 271 255 246 240 233 223 219 211 199 191 188 191 195 198 198 198 196 195 197 196 196
173 222 234 269 284 221 233 228 213 218 226 234 251 256 265 280 291 300 306 305 304 298 283 263 252 247 241 235 231 225 217 202 192 190 194 201 198 194 193 194 195 197 198 198
166 203 208 258 253 251 259 242 223 228 236 244 261 266 271 281 285 287 294 293 288 286 279 268 255 246 241 236 232 226 219 209 197 196 200 197 190 188 190 192 193 194 196 195
176 168 191 244 294 293 257 231 216 220 224 227 243 255 279 278 281 286 288 284 281 284 280 268 253 241 236 232 228 225 220 204 198 201 198 193 192 191 192 190 191 196 197 196
176 171 189 200 160 238 248 182 211 224 239 235 253 270 273 270 282 284 273 277 282 284 280 273 264 254 242 231 225 221 210 201 200 202 201 197 198 196 191 190 195 197 196 201
195 176 174 185 230 266 278 231 200 216 253 237 243 263 276 290 296 280 274 278 278 281 278 273 266 256 239 222 213 203 202 200 203 207 206 203 199 197 194 197 200 198 197 202
176 187 186 192 222 243 255 189 196 186 261 233 232 259 275 279 276 290 324 303 291 293 293 292 287 263 233 219 196 194 201 202 212 215 213 205 200 199 201 203 200 196 198 202
172 188 204 211 234 258 267 193 163 200 257 327 232 252 256 243 260 307 316 312 311 311 310 307 293 262 240 203 184 199 209 220 225 214 201 198 200 202 202 197 192 189 190 189
184 186 197 195 220 243 169 157 200 251 338 298 287 282 274 271 286 297 305 312 319 320 322 320 300 292 272 190 189 210 226 232 203 191 193 197 197 195 188 183 183 182 183 186
207 201 196 202 220 244 175 208 236 332 283 281 286 290 281 280 286 292 304 312 315 315 317 320 303 298 301 206 203 221 243 206 180 184 194 194 187 189 184 183 183 181 185 192
223 213 213 242 252 258 256 253 260 263 262 276 281 283 271 273 283 288 298 308 315 318 324 328 321 300 297 281 253 252 253 182 178 192 196 188 186 189 187 191 190 190 193 198
207 185 210 243 262 280 256 237 251 260 269 279 286 282 272 273 280 284 292 301 309 318 325 317 294 290 298 308 297 306 254 183 193 198 197 194 195 193 193 199 204 206 211 210
200 197 204 230 220 219 243 240 249 251 263 269 275 287 292 274 275 285 289 298 308 311 317 312 306 303 304 303 297 299 248 201 196 202 202 201 199 199 199 201 210 218 229 237